Location: B�rgermoos
(47.6500°N, 9.0667°E)
Time: 10:17:45
(UTC+00:00)

Vanguard 3 - Pass Details

Date: 04 August 2021
Orbit: 510 x 3260 km, 33.4° (Epoch: 23 September)

Event Time Altitude Azimuth Distance (km) Brightness Sun altitude
Rises 20:54:13 0° 271° (W) 6,454 12.3 -16.6°
Reaches altitude 10° 20:58:33 10° 264° (W) 5,713 11.9 -17.0°
Maximum altitude 21:14:44 39° 205° (SSW) 4,246 10.5 -18.6°
Enters shadow 21:25:30 23° 158° (SSE) 4,972 10.5 -19.6°
